www.pogodaiklimat.ru

Погода и климат >> Архив погоды >> Великобритания >> Эдинбург


АРХИВ ПОГОДЫ в Эдинбурге

Время (UTC), дата Ветер
(напр.,м/с)
 
Видим.   Явления Облачность Т
(С)
Тd
(С)
f
(%)
Тe
(С)
Тes
(С)
Комфортность P
(гПа)
Po
(гПа)
Тmin
(С)
Tmax
(С)
R
(мм)
R24
(мм)
S
(см)
01 16.09 ЮЗ 3 14 км н/о +7.3 +5.8 90 +4 +4 по сезону 1022.4 1015.4
02 16.09 ЮЗ 3 14 км н/о +7.1 +5.7 91 +4 +4 прохладно 1022.3 1015.2
03 16.09 СЗ 1 14 км н/о +5.3 +4.2 93 +5 +5 прохладно 1022.0 1014.9
04 16.09 ЮВ 1 13 км н/о +5.9 +5.7 99 +6 +6 по сезону 1021.8 1014.7
05 16.09 З 4 14 км н/о +9.0 +7.1 88 +6 +6 по сезону 1021.5 1014.5
06 16.09 ЮЗ 3 14 км н/о +9.3 +7.8 90 +7 +7 по сезону 1021.5 1014.5 +5.0
07 16.09 ЮЗ 4 14 км н/о +9.5 +7.7 89 +7 +7 по сезону 1021.5 1014.5
08 16.09 З 4 17 км н/о +10.8 +8.3 85 +8 +8 по сезону 1021.4 1014.4
09 16.09 З 6 24 км н/о +11.8 +8.4 80 +9 +9 прохладно 1021.7 1014.7
10 16.09 З 5 30 км н/о +12.9 +7.9 72 +11 +11 по сезону 1021.8 1014.8
11 16.09 З 7 35 км н/о +14.3 +7.8 65 +12 +12 по сезону 1021.8 1014.9
12 16.09 З 7 27 км н/о +15.3 +7.2 58 +14 +14 по сезону 1021.6 1014.8
13 16.09 З 6 35 км н/о +15.3 +6.3 55 +14 +14 тепло 1021.6 1014.7
14 16.09 З 8 35 км н/о +15.1 +6.3 56 +13 +13 по сезону 1021.3 1014.4
15 16.09 З 7
{13}
50 км н/о +14.8 +7.0 60 +13 +13 по сезону 1021.5 1014.6
16 16.09 З 6 50 км н/о +14.1 +7.1 63 +12 +12 тепло 1021.5 1014.6
17 16.09 З 5 30 км н/о +14.2 +7.3 63 +13 +13 по сезону 1021.6 1014.7
18 16.09 З 6 40 км н/о +12.9 +7.3 69 +11 +11 по сезону 1021.8 1014.9 +16.5
19 16.09 З 5 35 км н/о +11.8 +7.3 74 +9 +9 по сезону 1022.1 1015.2
20 16.09 ЮЗ 5 26 км н/о +10.8 +7.5 80 +8 +8 по сезону 1022.2 1015.2
21 16.09 ЮЗ 6 29 км н/о +10.5 +7.4 81 +7 +7 прохладно 1022.4 1015.4
22 16.09 ЮЗ 6 25 км н/о +10.3 +7.2 81 +7 +7 по сезону 1022.2 1015.2
23 16.09 З 6 24 км н/о +10.5 +7.4 81 +7 +7 по сезону 1022.4 1015.4
00 17.09 З 5 21 км н/о +10.5 +7.3 81 +8 +8 по сезону 1022.4 1015.4
01 17.09 З 5 23 км н/о +9.9 +7.5 85 +7 +7 по сезону 1022.5 1015.5
02 17.09 ЮЗ 5 20 км н/о +9.9 +7.2 83 +7 +7 по сезону 1022.6 1015.6
03 17.09 ЮЗ 5 21 км н/о +9.6 +7.5 87 +6 +6 прохладно 1022.8 1015.8
04 17.09 З 5 26 км н/о +9.0 +6.9 87 +5 +5 по сезону 1023.1 1016.0
05 17.09 ЮЗ 4 25 км н/о +8.3 +5.8 84 +5 +5 по сезону 1023.4 1016.4
06 17.09 ЮЗ 5 25 км н/о +8.5 +5.4 81 +5 +5 прохладно 1023.8 1016.7 +8.0
07 17.09 З 4 26 км н/о +9.1 +5.8 80 +6 +6 по сезону 1024.5 1017.5
08 17.09 З 4 18 км н/о +10.6 +6.3 75 +8 +8 по сезону 1025.1 1018.1
09 17.09 СЗ 3 21 км н/о +12.2 +4.4 59 +11 +11 по сезону 1025.7 1018.7
10 17.09 СЗ 5 26 км н/о +13.2 +3.7 52 +12 +12 по сезону 1025.9 1018.9
11 17.09 З 5 26 км н/о +13.6 +3.2 49 +12 +12 по сезону 1026.3 1019.4
12 17.09 З 3 19 км н/о +13.9 +4.1 52 +13 +13 по сезону 1026.5 1019.6
13 17.09 СЗ 3 35 км н/о +13.9 +3.2 48 +13 +13 тепло 1026.6 1019.7
14 17.09 З 4 25 км н/о +15.4 +3.9 46 +15 +15 тепло 1026.8 1019.9
15 17.09 СЗ 3 35 км н/о +14.9 +2.6 43 +15 +15 по сезону 1026.9 1020.0
16 17.09 СЗ 2 35 км н/о +14.5 +4.1 50 +14 +14 тепло 1026.8 1019.9
17 17.09 С 3 25 км н/о +14.1 +4.0 51 +13 +13 по сезону 1027.0 1020.1
18 17.09 С 2 35 км н/о +13.1 +5.1 58 +13 +13 по сезону 1027.2 1020.2 +15.9
19 17.09 штиль 0 17 км н/о +11.9 +5.7 66 +12 +12 тепло 1027.4 1020.4
20 17.09 Ю 2 40 км н/о +10.9 +6.5 74 +10 +10 по сезону 1028.1 1021.1
21 17.09 Ю 3 35 км н/о +9.2 +5.6 78 +7 +7 прохладно 1028.3 1021.2
22 17.09 Ю 2 30 км н/о +8.5 +5.6 82 +7 +7 по сезону 1028.4 1021.3
23 17.09 ЮЗ 1 30 км н/о +8.8 +6.2 84 +9 +9 по сезону 1028.5 1021.5
00 18.09 ЮЗ 2 26 км н/о +10.0 +6.5 79 +9 +9 по сезону 1028.5 1021.4
01 18.09 ЮЗ 1 30 км н/о +9.8 +6.7 81 +9 +9 тепло 1028.6 1021.5
02 18.09 Ю 2 22 км н/о +9.8 +6.6 80 +9 +9 по сезону 1028.4 1021.4
03 18.09 ЮЗ 2 28 км н/о +9.7 +6.3 79 +8 +8 по сезону 1028.3 1021.3
04 18.09 ЮЗ 2 23 км н/о +9.7 +6.4 80 +9 +9 тепло 1028.2 1021.2
05 18.09 ЮЗ 1 28 км н/о +9.9 +6.4 79 +9 +9 по сезону 1028.1 1021.1
06 18.09 ЮЗ 2 25 км н/о +10.2 +6.3 77 +9 +9 по сезону 1028.4 1021.4 +8.1
07 18.09 ЮЗ 3 28 км н/о +10.3 +5.9 74 +9 +9 по сезону 1028.7 1021.7
08 18.09 ЮЗ 2 30 км н/о +10.9 +5.9 71 +10 +10 по сезону 1029.0 1022.0
09 18.09 ЮЗ 4 26 км н/о +12.0 +7.1 72 +10 +10 по сезону 1028.8 1021.8
10 18.09 ЮЗ 5 22 км н/о +13.3 +8.6 73 +11 +11 по сезону 1028.6 1021.7
11 18.09 З 6 24 км н/о +14.4 +9.7 73 +13 +13 по сезону 1028.7 1021.8
12 18.09 З 5 25 км н/о +15.5 +10.2 71 +14 +14 по сезону 1028.6 1021.7
13 18.09 З 6 30 км н/о +16.4 +10.3 67 +15 +15 тепло 1028.4 1021.5
14 18.09 З 6 23 км н/о +16.8 +10.4 66 +16 +16 тепло 1028.3 1021.4
15 18.09 З 5 40 км н/о +16.2 +10.7 70 +15 +15 тепло 1028.4 1021.5
16 18.09 З 5 40 км н/о +16.2 +10.9 71 +15 +15 тепло 1028.3 1021.4
17 18.09 ЮЗ 5 40 км н/о +15.8 +11.4 75 +15 +15 тепло 1028.3 1021.4
18 18.09 ЮЗ 3 45 км н/о +15.2 +11.6 79 +14 +14 по сезону 1028.6 1021.7 +17.4
19 18.09 ЮЗ 3 50 км н/о +14.8 +11.6 81 +14 +14 тепло 1029.1 1022.2
20 18.09 ЮЗ 4 50 км н/о +13.9 +11.5 85 +13 +13 тепло 1029.6 1022.6
21 18.09 ЮЗ 3 50 км н/о +13.1 +11.3 89 +12 +12 по сезону 1029.8 1022.8
22 18.09 ЮЗ 3 50 км н/о +12.4 +11.1 92 +11 +11 тепло 1030.0 1023.0
23 18.09 ЮЗ 4 50 км н/о +12.5 +11.0 91 +11 +11 тепло 1029.9 1022.9
00 19.09 ЮЗ 4 50 км н/о +12.0 +10.7 92 +10 +10 по сезону 1030.1 1023.0
01 19.09 ЮЗ 3 45 км н/о +11.4 +10.4 94 +10 +10 тепло 1030.0 1023.0
02 19.09 ЮЗ 3 45 км н/о +11.3 +10.6 95 +10 +10 тепло 1029.8 1022.8
03 19.09 ЮЗ 4 35 км н/о +11.7 +11.1 96 +10 +10 по сезону 1029.7 1022.7
04 19.09 ЮЗ 3 35 км н/о +11.8 +11.0 95 +10 +10 тепло 1029.7 1022.7
05 19.09 ЮЗ 3 50 км н/о +12.2 +11.1 93 +10 +10 тепло 1029.7 1022.7
06 19.09 ЮЗ 3 50 км н/о +12.2 +11.0 92 +10 +10 по сезону 1029.9 1022.9 +11.1
07 19.09 З 3 45 км н/о +12.5 +11.1 91 +11 +11 тепло 1030.0 1023.0
08 19.09 З 5 35 км н/о +13.1 +10.9 86 +11 +11 по сезону 1030.1 1023.2
09 19.09 З 5 28 км н/о +13.4 +11.0 85 +11 +11 по сезону 1030.4 1023.4
10 19.09 З 5 35 км н/о +14.0 +11.2 83 +12 +12 по сезону 1030.4 1023.4
11 19.09 З 5 22 км н/о +14.8 +11.4 80 +13 +13 по сезону 1030.0 1023.1
12 19.09 ЮЗ 6 27 км н/о +16.4 +11.7 74 +15 +15 по сезону 1029.9 1023.0
13 19.09 ЮЗ 6 30 км н/о +16.6 +11.7 73 +16 +16 тепло 1029.6 1022.7
14 19.09 З 5 21 км н/о +18.5 +11.5 64 +19 +19 тепло 1029.0 1022.2
15 19.09 З 6 30 км н/о +18.8 +10.7 59 +19 +19 тепло 1028.7 1021.8
16 19.09 З 6 40 км н/о +18.7 +10.5 59 +19 +19 тепло 1028.4 1021.5
17 19.09 З 6 30 км н/о +18.0 +9.5 58 +18 +18 тепло 1028.1 1021.3
18 19.09 З 5 40 км н/о +16.6 +10.0 65 +16 +16 тепло 1028.0 1021.1 +19.5
19 19.09 ЮЗ 3 35 км н/о +14.1 +10.2 77 +13 +13 тепло 1028.4 1021.4
20 19.09 ЮЗ 3 29 км н/о +13.1 +10.1 82 +12 +12 тепло 1028.6 1021.6
21 19.09 ЮЗ 4 35 км н/о +12.8 +10.2 84 +11 +11 по сезону 1028.6 1021.6
22 19.09 ЮЗ 3 30 км н/о +12.4 +9.7 84 +11 +11 тепло 1028.8 1021.8
23 19.09 З 2 30 км н/о +10.7 +8.7 87 +9 +9 по сезону 1028.4 1021.4
00 20.09 З 2 17 км н/о +9.2 +8.1 93 +8 +8 по сезону 1028.2 1021.1
01 20.09 штиль 0 12 км н/о +8.1 +7.7 97 +7 +7 по сезону 1028.0 1020.9
02 20.09 СЗ 1 8000 м дымка н/о +8.0 +7.8 99 +8 +8 по сезону 1027.6 1020.5
03 20.09 С 1 8000 м в посл. час туман н/о +7.8 +7.7 99 +8 +8 по сезону 1027.2 1020.1
04 20.09 З 1 7000 м в посл. час туман н/о +7.1 +7.1 100 +7 +7 тепло 1026.8 1019.7
05 20.09 З 2 6000 м в посл. час туман н/о +6.6 +6.5 99 +4 +4 прохладно 1026.5 1019.4
06 20.09 СЗ 1 7000 м дымка н/о +7.2 +7.2 100 +7 +7 по сезону 1026.2 1019.1 +6.1
07 20.09 ЮВ 1 6000 м в посл. час туман н/о +7.4 +7.4 100 +6 +6 по сезону 1026.3 1019.2
08 20.09 В 1 25 км н/о +11.2 +11.1 99 +12 +12 по сезону 1026.4 1019.4
09 20.09 В 1 28 км н/о +14.9 +11.1 78 +16 +16 тепло 1026.0 1019.1
10 20.09 СВ 1 30 км н/о +17.4 +11.2 67 +19 +19 тепло 1025.6 1018.8
11 20.09 С 1 30 км н/о +18.2 +11.3 64 +20 +20 тепло 1025.3 1018.5
12 20.09 В 1 35 км н/о +20.4 +11.6 57 +24 +24 комфорт 1024.8 1018.0
13 20.09 СВ 2 16 км н/о +20.9 +12.6 59 +24 +24 комфорт 1023.9 1017.2
14 20.09 СВ 3 18 км н/о +20.7 +11.5 56 +23 +23 комфорт 1022.9 1016.1
15 20.09 СВ 3 23 км н/о +20.9 +11.4 55 +23 +23 комфорт 1022.0 1015.3
16 20.09 СВ 4 45 км н/о +19.2 +9.3 53 +20 +20 тепло 1021.2 1014.5
17 20.09 СВ 3 50 км н/о +18.3 +8.4 52 +19 +19 тепло 1020.9 1014.1
18 20.09 С 1 40 км н/о +15.9 +9.3 65 +17 +17 тепло 1020.6 1013.7 +21.2
19 20.09 ЮЗ 1 30 км н/о +12.9 +9.8 81 +14 +14 тепло 1020.3 1013.4
20 20.09 СЗ 1 14 км н/о +11.1 +9.9 92 +11 +11 по сезону 1019.7 1012.7
21 20.09 ЮЗ 2 8000 м дымка н/о +10.3 +9.7 96 +9 +9 по сезону 1019.4 1012.5
22 20.09 ЮВ 1 9000 м дымка н/о +9.6 +9.1 97 +10 +10 тепло 1018.9 1011.9
23 20.09 З 2 3900 м дымка н/о +9.5 +9.3 99 +8 +8 по сезону 1018.5 1011.5
00 21.09 З 1 5000 м дымка н/о +9.1 +8.9 99 +8 +8 по сезону 1018.1 1011.1
01 21.09 ЮЗ 1 4800 м дымка н/о +8.7 +8.4 98 +9 +9 тепло 1017.7 1010.7
02 21.09 Ю 1 6000 м дымка н/о +8.6 +8.2 97 +8 +8 по сезону 1017.1 1010.1
03 21.09 СВ 1 14 км дымка н/о +9.0 +8.8 99 +8 +8 по сезону 1016.3 1009.4
04 21.09 СЗ 1 16 км н/о +9.1 +8.8 98 +8 +8 тепло 1015.6 1008.6
05 21.09 З 1 35 км н/о +9.3 +8.4 94 +10 +10 тепло 1015.1 1008.2
06 21.09 ЮВ 1 27 км н/о +8.0 +7.1 94 +8 +8 по сезону 1015.0 1008.0 +7.5
07 21.09 С 2 16 км н/о +9.0 +8.8 99 +7 +7 по сезону 1014.7 1007.8
08 21.09 С 1 26 км н/о +12.0 +9.4 84 +12 +12 тепло 1014.6 1007.7
09 21.09 С 4 23 км н/о +14.1 +10.3 78 +13 +13 по сезону 1014.0 1007.2
10 21.09 СВ 4 15 км н/о +16.0 +11.2 73 +15 +15 тепло 1013.5 1006.7
11 21.09 СВ 3 30 км н/о +18.6 +11.4 63 +19 +19 тепло 1012.5 1005.7
12 21.09 В 5 23 км н/о +20.9 +10.3 51 +23 +23 комфорт 1011.9 1005.2
13 21.09 С 5 26 км н/о +18.6 +11.6 64 +19 +19 тепло 1011.0 1004.3
14 21.09 СВ 5 30 км н/о +20.7 +11.9 57 +23 +23 комфорт 1010.1 1003.4
15 21.09 СВ 4 29 км н/о +20.4 +12.2 59 +23 +23 комфорт 1009.5 1002.8
16 21.09 СВ 4 24 км н/о +20.2 +11.7 58 +22 +22 комфорт 1008.7 1002.1
17 21.09 СВ 3 30 км н/о +20.1 +11.6 58 +22 +22 комфорт 1008.3 1001.6
18 21.09 СВ 2 24 км н/о +17.1 +11.7 71 +18 +18 тепло 1008.2 1001.4 +21.6
19 21.09 С 3 21 км н/о +15.5 +11.6 78 +15 +15 тепло 1008.4 1001.6
20 21.09 С 3 19 км н/о +14.2 +11.0 81 +13 +13 тепло 1008.2 1001.4
21 21.09 С 3 10 км н/о +12.7 +11.3 91 +11 +11 по сезону 1007.9 1001.1
22 21.09 СВ 3 9000 м дымка н/о +12.1 +11.5 96 +10 +10 тепло 1007.7 1000.9
23 21.09 СВ 2 9000 м дымка н/о +11.7 +11.0 95 +10 +10 тепло 1007.4 1000.6
00 22.09 С 1 7000 м дымка н/о +11.1 +10.5 96 +11 +11 по сезону 1007.1 1000.3
01 22.09 В 1 5000 м дымка н/о +9.9 +9.4 97 +10 +10 тепло 1006.8 999.9
02 22.09 В 1 5000 м дымка н/о +10.2 +10.0 99 +10 +10 тепло 1006.1 999.2
03 22.09 В 1 5000 м дымка н/о +10.2 +10.1 99 +10 +10 по сезону 1005.8 999.0
04 22.09 В 2 5000 м дымка н/о +11.3 +11.2 99 +10 +10 тепло 1005.1 998.2
05 22.09 В 2 5000 м слаб. ливневой дождь н/о +11.6 +11.5 99 +10 +10 тепло 1004.5 997.7
06 22.09 В 3 7000 м в посл. час дождь н/о +11.9 +11.6 98 +10 +10 по сезону 1004.3 997.5 +9.6 0.0
07 22.09 СВ 4 3000 м дымка н/о +12.0 +11.9 99 +10 +10 тепло 1004.3 997.4
08 22.09 В 4 4500 м дымка н/о +12.4 +12.0 97 +10 +10 по сезону 1004.2 997.3
09 22.09 СВ 3 6000 м дымка н/о +12.9 +12.3 96 +12 +12 по сезону 1004.1 997.3
10 22.09 СВ 3 11 км н/о +13.7 +12.5 92 +12 +12 по сезону 1003.7 996.9
11 22.09 В 3 11 км в посл. час дождь н/о +14.0 +12.6 91 +13 +13 по сезону 1003.2 996.4
12 22.09 В 2 8000 м слаб. ливневой дождь н/о +13.8 +12.8 94 +13 +13 по сезону 1003.1 996.4 0.2
13 22.09 СВ 2 4800 м дождь н/о +13.9 +13.4 97 +13 +13 тепло 1002.8 996.0
14 22.09 В 3 н/о н/о +14.1 +13.8 98 +13 +13 по сезону 1002.2 995.5
15 22.09 В 4 5000 м дымка н/о +14.2 +13.8 97 +13 +13 по сезону 1001.8 995.0
16 22.09 СВ 2 4700 м в посл. час дождь н/о +14.0 +13.6 97 +13 +13 тепло 1001.6 994.8
17 22.09 СВ 3 3400 м слаб. дождь н/о +13.7 +13.4 98 +12 +12 тепло 1001.5 994.7
18 22.09 В 2 4100 м слаб. дождь н/о +13.6 +13.5 99 +13 +13 по сезону 1001.6 994.8 +14.3 3
19 22.09 СВ 1 1300 м сильн. ливневой дождь н/о +13.6 +13.5 99 +14 +14 тепло 1001.7 994.9
20 22.09 СВ 2 1700 м сильн. дождь н/о +13.4 +13.3 99 +13 +13 тепло 1002.0 995.2
21 22.09 В 2 4500 м дождь н/о +13.5 +13.4 99 +13 +13 тепло 1002.4 995.6
22 22.09 В 3 3500 м сильн. дождь н/о +13.4 +13.4 100 +12 +12 тепло 1002.5 995.7
23 22.09 ЮЗ 1 4500 м слаб. дождь н/о +13.4 +13.3 99 +14 +14 тепло 1002.6 995.8
00 23.09 С 2 2200 м слаб. ливневой дождь н/о +13.2 +13.2 100 +13 +13 тепло 1002.0 995.2 15

 

Местоположение метеостанции Эдинбург (Великобритания): широта 55.93 долгота -3.35 высота над уровнем моря 57 м.

В архиве по умолчанию представлена погода в Эдинбурге за последнюю неделю. Архивные данные за месяц целиком и за предыдущие месяцы, начиная с января 2011 года, Вы можете получить, выбрав интересующий диапазон дат из раскрывающегося списка и нажав кнопку "Ввод!".


*Определитесь, кто Вы:
робот инопланетянин человек

Внимание! Время в таблицах - всемирное. Для получения местного времени необходимо прибавить поправку, которая равна 0 ч.

Смотрите также архив погоды в соседних городах и на ближайших метеорологических станциях:

Погода в Друмалбине (Великобритания) (42 км)
Погода в Страталлане (Великобритания) (49 км)
Погода в Леучарсе (Великобритания) (60 км)
Погода в Чартерхолле (Великобритания) (66 км)
Погода в Эскдейлмьюире (Великобритания) (68 км)
Погода в Глазго (Великобритания) (74 км)
Погода в Гленогле (Великобритания) (81 км)
Погода в Прествике (Великобритания) (90 км)
Погода в Лагере Redesdale (Великобритания) (99 км)
Погода на Кэрнуэлле (Великобритания) (106 км)

Пояснения к столбцам:

Ветер - указаны скорость ветра в м/с - средняя за 10 мин, порывы в срок и между сроками (в фигурных скобках) и направление, откуда дует ветер: С - северный, СВ - северо-восточный, В - восточный, ЮВ - юго-восточный, Ю - южный, ЮЗ - юго-западный, З - западный, СЗ - северо-западный.
Видимость - горизонтальная дальность видимости в метрах или километрах. При видимости от 1 до 10 км при отсутствии осадков обычно наблюдается дымка, при ухудшении видимости до 1 км и менее - туман. В сухую погоду видимость может ухудшаться дымом, пылью или мглою.
Явления - указаны атмосферные явления, наблюдавшиеся в срок или в последний час перед сроком; фигурными скобками обозначены явления, наблюдавшиеся между сроками (за 1-3 часа до срока); квадратными скобками обозначены град или гололедные отложения с указанием их диаметра в мм.
Облачность - указаны через наклонную черту общая и нижняя облачность в баллах и высота нижней границы облаков в метрах; квадратными скобками обозначены формы облаков: Ci - перистые, Cs - перисто-слоистые, Cc - перисто-кучевые, Ac - высококучевые, As - высокослоистые, Sc - слоисто-кучевые, Ns - слоисто-дождевые, Cu - кучевые, Cb - кучево-дождевые. Подробнее классификацию облаков см. в Атласе облаков (PDF).
T - Температура воздуха - температура, измеренная на высоте 2 м над землей.
Td - Температура точки росы - температура, при понижении до которой содержащийся в воздухе водяной пар достигнет насыщения.
f - Относительная влажность воздуха - влажноcть воздуха, измеренная на высоте 2 м над землей.
Te - Эффективная температура - температура, которую ощущает одетый по сезону человек в тени. Характеристика душности погоды. При расчете учитывается влияние влажности воздуха и скорости ветра на теплоощущения человека.
Tes - Эффективная температура на солнце - температура, которую ощущает человек, с поправкой на солнечный нагрев. Характеристика знойности погоды. Зависит от высоты солнца над горизонтом, облачности и скорости ветра. Ночью, в пасмурную погоду, а также при ветре 12 м/с и более поправка равна нулю.
P - Атмосферное давление - приведенное к уровню моря атмосферное давление.
Po - Атмосферное давление - измеренное на уровне метеостанции атмосферное давление.
Tmin - Минимальная температура - минимум температуры воздуха на высоте 2 м над землей.
Tmax - Максимальная температура - максимум температуры воздуха на высоте 2 м над землей.
R - Количество осадков - Количество выпавших осадков за период времени, мм. При наведении курсора мыши на число - период времени, за который выпало указанное количество осадков.
R24 - Количество осадков - Количество выпавших осадков за 24 часа, мм.
S - Снежный покров - Высота снежного покрова, см. При наведении курсора мыши на число - состояние снежного покрова и степень покрытия местности в баллах.